This is the latest recevied weather packets stored in our database for station/object IZ1UQG-1. If no packets are shown the sender has not sent any weather packets the latest 10 day(s).
| Time | Temp. | Humidity | Pressure | Rain* | Wind** | Luminosity | Snow |
|---|---|---|---|---|---|---|---|
| 1777998235 | 15° C | 78% | 1012.6 hPa | 220.98 mm | - | - | - |
| 1777997935 | 15° C | 78% | 1012.7 hPa | 225.81 mm | - | - | - |
| 1777997635 | 15° C | 78% | 1012.5 hPa | 210.57 mm | - | - | - |
| 1777997335 | 15° C | 78% | 1012.6 hPa | 211.84 mm | - | - | - |
| 1777997035 | 15° C | 78% | 1012.6 hPa | 179.58 mm | - | - | - |
| 1777996735 | 15° C | 78% | 1012.6 hPa | 68.33 mm | - | - | - |
| 1777996135 | 15.56° C | 78% | 1012.6 hPa | 209.04 mm | - | - | - |
| 1777995835 | 15.56° C | 78% | 1012.6 hPa | 9.4 mm | - | - | - |
| 1777995535 | 15.56° C | 78% | 1012.6 hPa | 139.7 mm | - | - | - |
| 1777995235 | 15.56° C | 78% | 1012.9 hPa | 181.1 mm | - | - | - |
| 1777994935 | 15.56° C | 78% | 1012.9 hPa | 4.83 mm | - | - | - |
| 1777994635 | 15.56° C | 78% | 1012.8 hPa | 202.95 mm | - | - | - |
| 1777994335 | 15.56° C | 78% | 1012.8 hPa | 98.3 mm | - | - | - |
| 1777994035 | 15.56° C | 78% | 1012.8 hPa | 173.48 mm | - | - | - |
| 1777993735 | 15.56° C | 78% | 1012.8 hPa | 158.24 mm | - | - | - |
| 1777993435 | 15.56° C | 78% | 1012.7 hPa | 1.78 mm | - | - | - |
| 1777993135 | 15.56° C | 78% | 1012.9 hPa | 125.73 mm | - | - | - |
| 1777992835 | 15.56° C | 78% | 1012.7 hPa | 230.38 mm | - | - | - |
| 1777992535 | 15.56° C | 78% | 1012.8 hPa | 220.98 mm | - | - | - |
| 1777992235 | 15.56° C | 78% | 1012.9 hPa | 226.31 mm | - | - | - |
| 1777991935 | 15.56° C | 78% | 1012.9 hPa | 7.37 mm | - | - | - |
| 1777991635 | 15.56° C | 78% | 1012.9 hPa | 237.49 mm | - | - | - |
| 1777991335 | 15.56° C | 78% | 1012.8 hPa | 178.05 mm | - | - | - |
| 1777991035 | 15.56° C | 78% | 1012.8 hPa | 228.85 mm | - | - | - |
| 1777990735 | 15.56° C | 78% | 1012.8 hPa | 161.54 mm | - | - | - |
* Rain latest hour (hover to see other rain measurements)
** Current wind speed in m/s (hover to see current wind gust speed)